Location: Rosenheim
(47.8408°N, 12.2113°E)
Time: 00:15:50
(UTC+01:00)

ISS - Pass Details

Date: 06 January 2018
Orbit: 401 x 406 km, 51.6° (Epoch: 17 January)

Event Time Altitude Azimuth Distance (km) Brightness Sun altitude
Exits shadow 05:15:43 19° 58° (ENE) 1,047 -1.2 -26.6°
Drops below altitude 10° 05:16:49 10° 65° (ENE) 1,468 -0.3 -26.4°
Sets 05:18:57 0° 71° (ENE) 2,330 1.1 -26.0°
